This demonstration page uses our WeatherBlox Daily Observations layout. Learn more.

Hourly Observations for January 24, 2020

Temp ( °F °C ) Dew Point ( °F °C ) Humidity (%) Winds ( mph kmh ) Pressure ( in mb ) Visibility ( mi km ) Precip ( " mm )
12:15 am 00:15 Cloudy 28 -2 27 -2.8 94 94 N 18 30 30.18 1022 10 16.0934 0 0
12:35 am 00:35 Cloudy 28 -2.2 26 -3.3 92 92 N 20 31 30.19 1022 10 16.0934 0 0
12:55 am 00:55 Cloudy 28 -2.3 26 -3.2 94 94 N 17 28 30.19 1022 10 16.0934 0 0
1:15 am 01:15 Cloudy 28 -2.5 26 -3.3 94 94 N 14 22 30.19 1022 10 16.0934 0 0
1:35 am 01:35 Cloudy 27 -2.6 26 -3.3 95 95 N 12 19 30.19 1022 10 16.0934 0 0
1:55 am 01:55 Cloudy 27 -2.6 26 -3.5 94 94 NW 13 20 30.18 1022 10 16.0934 0 0
2:15 am 02:15 Cloudy 27 -2.6 25 -3.7 92 92 NNW 10 17 30.19 1022 10 16.0934 0 0
2:35 am 02:35 Cloudy 27 -2.7 25 -3.8 92 92 NNW 14 22 30.19 1022 10 16.0934 0 0
2:55 am 02:55 Cloudy 27 -2.8 25 -3.9 92 92 NNW 13 20 30.19 1022 10 16.0934 0 0
3:15 am 03:15 Cloudy 27 -2.7 25 -3.7 93 93 NNW 14 22 30.19 1022 10 16.0934 0 0
3:35 am 03:35 Cloudy 27 -2.8 25 -4 92 92 NNW 10 17 30.18 1022 10 16.0934 0 0
3:55 am 03:55 Cloudy 27 -3 25 -4 93 93 NNW 12 19 30.17 1022 10 16.0934 0 0
4:15 am 04:15 Cloudy 27 -3 25 -4.1 92 92 NNW 9 15 30.18 1022 10 16.0934 0 0
4:35 am 04:35 Cloudy 26 -3.2 24 -4.3 92 92 NNW 13 20 30.19 1022 10 16.0934 0 0
4:55 am 04:55 Cloudy 26 -3.2 24 -4.2 93 93 N 9 15 30.18 1022 10 16.0934 0 0
5:15 am 05:15 Cloudy 26 -3.5 24 -4.3 94 94 N 10 17 30.18 1022 10 16.0934 0 0
5:35 am 05:35 Cloudy 26 -3.6 24 -4.3 95 95 NNW 10 17 30.18 1022 10 16.0934 0 0
5:55 am 05:55 Cloudy 25 -3.8 24 -4.5 95 95 NNW 12 19 30.19 1022 10 16.0934 0 0
6:15 am 06:15 Cloudy 25 -4 24 -4.6 96 96 N 9 15 30.19 1022 10 16.0934 0 0
6:35 am 06:35 Cloudy 24 -4.2 24 -4.7 96 96 NNW 12 19 30.21 1023 10 16.0934 0 0
6:55 am 06:55 Cloudy 24 -4.5 23 -4.8 98 98 N 12 19 30.21 1023 10 16.0934 0 0
7:15 am 07:15 Cloudy 24 -4.6 23 -4.9 98 98 NNW 10 17 30.21 1023 10 16.0934 0 0
7:35 am 07:35 Cloudy 24 -4.6 23 -5 97 97 N 12 19 30.21 1023 10 16.0934 0 0
7:55 am 07:55 Cloudy 24 -4.4 23 -4.9 96 96 N 8 13 30.22 1023 10 16.0934 0 0
8:15 am 08:15 Cloudy 24 -4.2 23 -4.8 96 96 NNW 9 15 30.23 1024 10 16.0934 0 0
8:35 am 08:35 Cloudy 25 -4 24 -4.6 96 96 NNW 8 13 30.22 1024 10 16.0934 0 0
8:55 am 08:55 Cloudy 25 -3.8 24 -4.5 95 95 NNW 8 13 30.22 1023 10 16.0934 0 0
9:15 am 09:15 Cloudy 26 -3.6 24 -4.4 94 94 NNW 9 15 30.22 1023 10 16.0934 0 0
9:35 am 09:35 Cloudy 26 -3.5 24 -4.4 94 94 NNW 9 15 30.22 1023 10 16.0934 0 0
9:55 am 09:55 Cloudy 26 -3.5 24 -4.5 93 93 NNW 8 13 30.22 1023 10 16.0934 0 0
10:15 am 10:15 Cloudy 26 -3.2 25 -4 94 94 NW 10 17 30.22 1023 10 16.0934 0 0
10:35 am 10:35 Cloudy 27 -2.9 25 -3.8 94 94 NNW 8 13 30.22 1023 10 16.0934 0 0
10:55 am 10:55 Cloudy 27 -2.9 25 -3.9 93 93 NW 7 11 30.22 1023 10 16.0934 0 0
11:15 am 11:15 Cloudy 27 -2.6 26 -3.6 93 93 WNW 8 13 30.22 1023 10 16.0934 0 0
11:35 am 11:35 Cloudy 27 -2.6 25 -3.8 92 92 NW 7 11 30.22 1023 10 16.0934 0 0
11:55 am 11:55 Cloudy 28 -2.2 26 -3.6 90 90 NNW 6 9 30.21 1023 10 16.0934 0 0
12:15 pm 12:15 Cloudy 28 -2.1 25 -3.7 89 89 NNW 6 9 30.2 1023 10 16.0934 0 0
12:35 pm 12:35 Cloudy 28 -2 26 -3.3 91 91 N 9 15 30.18 1022 10 16.0934 0 0
12:55 pm 12:55 Cloudy 29 -1.6 26 -3.2 89 89 NNW 5 7 30.18 1022 10 16.0934 0 0
1:15 pm 13:15 Cloudy 29 -1.6 26 -3.1 90 90 NW 6 9 30.17 1022 10 16.0934 0 0
1:35 pm 13:35 Cloudy 29 -1.6 26 -3.2 89 89 NNW 5 7 30.16 1021 10 16.0934 0 0
1:55 pm 13:55 Cloudy 29 -1.5 26 -3.3 88 88 N 3 6 30.15 1021 10 16.0934 0 0
2:15 pm 14:15 Cloudy 29 -1.5 26 -3.2 88 88 NNW 3 6 30.15 1021 10 16.0934 0 0
2:35 pm 14:35 Cloudy 31 -0.7 27 -2.6 87 87 W 6 9 30.14 1021 10 16.0934 0 0
2:55 pm 14:55 Cloudy 31 -0.7 27 -2.9 85 85 NW 3 6 30.13 1020 10 16.0934 0 0
3:15 pm 15:15 Mostly Cloudy 31 -0.3 28 -2.5 85 85 NNW 5 7 30.12 1020 10 16.0934 0 0
3:35 pm 15:35 Partly Cloudy 32 0 27 -2.7 82 82 N 3 6 30.11 1020 10 16.0934 0 0
3:55 pm 15:55 Partly Cloudy 31 -0.4 27 -2.6 85 85 NNE 3 6 30.12 1020 10 16.0934 0 0
4:15 pm 16:15 Sunny 31 -0.3 28 -2.3 87 87 ENE 5 7 30.12 1020 10 16.0934 0 0
4:35 pm 16:35 Sunny 31 -0.5 28 -2.5 87 87 ENE 5 7 30.11 1020 10 16.0934 0 0
4:55 pm 16:55 Sunny 31 -0.7 27 -2.7 87 87 ENE 3 6 30.11 1020 10 16.0934 0 0
5:15 pm 17:15 Sunny 30 -1.1 27 -2.7 89 89 ENE 5 7 30.12 1020 10 16.0934 0 0
5:35 pm 17:35 Sunny 29 -1.5 27 -3 90 90 E 3 6 30.13 1020 10 16.0934 0 0
5:55 pm 17:55 Clear 28 -2 26 -3.1 92 92 E 3 6 30.13 1020 10 16.0934 0 0
6:15 pm 18:15 Clear 28 -2.2 26 -3.2 93 93 E 5 7 30.14 1021 10 16.0934 0 0
6:35 pm 18:35 Clear 27 -2.7 26 -3.5 94 94 E 5 7 30.14 1021 10 16.0934 0 0
6:55 pm 18:55 Clear 27 -2.8 26 -3.5 95 95 E 5 7 30.14 1021 10 16.0934 0 0
7:15 pm 19:15 Clear 27 -3 26 -3.5 96 96 E 7 11 30.14 1021 10 16.0934 0 0
7:35 pm 19:35 Clear 26 -3.5 25 -4 96 96 ESE 7 11 30.15 1021 10 16.0934 0 0
7:55 pm 19:55 Clear 26 -3.5 25 -4 96 96 ESE 6 9 30.15 1021 10 16.0934 0 0
8:15 pm 20:15 Clear 25 -3.8 25 -4.1 98 98 SE 5 7 30.15 1021 10 16.0934 0 0
8:35 pm 20:35 Clear 25 -4 24 -4.2 99 99 SE 5 7 30.15 1021 10 16.0934 0 0
8:55 pm 20:55 Clear 24 -4.2 24 -4.4 99 99 SSE 3 6 30.16 1021 10 16.0934 0 0
9:15 pm 21:15 Clear 24 -4.5 24 -4.5 100 100 SSE 5 7 30.16 1021 10 16.0934 0 0
9:35 pm 21:35 Partly Cloudy 24 -4.6 24 -4.7 99 99 SE 5 7 30.16 1021 10 16.0934 0 0
9:55 pm 21:55 Cloudy with Mist and Fog 24 -4.6 24 -4.6 100 100 SSE 5 7 30.17 1022 2 3.21868 0 0
10:15 pm 22:15 Cloudy with Mist and Fog 24 -4.7 24 -4.7 100 100 S 5 7 30.17 1022 0.75 1.207005 0 0
10:35 pm 22:35 Cloudy 24 -4.6 24 -4.6 100 100 S 6 9 30.17 1022 7 11.26538 0 0
10:55 pm 22:55 Cloudy with Mist and Fog 24 -4.5 24 -4.5 100 100 S 3 6 30.17 1022 4 6.43736 0 0
11:15 pm 23:15 Mostly Cloudy 24 -4.7 23 -4.8 99 99 S 3 6 30.16 1021 7 11.26538 0 0
11:35 pm 23:35 Cloudy 23 -5 23 -5.1 99 99 SSW 3 6 30.16 1021 7 11.26538 0 0
11:55 pm 23:55 Cloudy with Mist and Fog 23 -4.9 23 -5 99 99 SSW 5 7 30.18 1022 0.75 1.207005 0 0

Powered by AerisWeather